Wind_Speed
22 21 19 18 16 15 14 14 13 11 10 9 8 9 11 12 14 15 16 16 16 16 15 15 14 13 12 12 11 11 11 12 14 15 16 17 18 18 19 19 20 21 21 20 19 19 19 20 21 22 23 25 26 27 28 28 29 30 31 32 33 34 35 37 38 38 37 38 40 42 44 46 47 47 49 48 46 43 40 38 37 37 37 37 37
23 22 20 18 16 15 15 15 14 12 10 8 8 10 12 13 15 16 17 17 17 16 16 15 14 13 13 12 12 12 12 13 14 15 16 17 17 18 19 20 20 20 19 18 18 18 18 20 21 22 24 25 26 26 27 28 29 29 30 31 32 33 34 36 38 40 40 40 42 44 45 47 48 48 48 48 46 44 41 39 38 37 37 37 37
24 23 22 20 17 16 16 16 15 12 10 9 10 12 13 14 16 17 18 19 18 17 16 15 14 14 13 13 13 13 13 14 14 15 16 16 17 18 19 19 19 18 18 17 17 18 19 20 21 22 24 24 25 26 27 27 28 29 30 30 31 32 33 36 38 41 43 43 44 46 47 49 49 48 47 47 45 45 44 42 40 38 37 36 36
25 24 23 21 19 18 18 17 15 13 12 12 13 14 15 15 16 18 19 20 19 18 17 15 15 14 14 13 13 14 14 14 15 15 15 16 17 18 19 19 18 17 16 16 16 17 19 20 21 22 23 23 24 25 26 27 28 28 29 29 30 32 34 37 39 42 44 45 46 47 48 49 49 48 47 47 46 45 45 44 42 40 38 37 35
25 25 23 21 20 19 19 18 16 15 14 14 15 15 16 16 17 18 20 20 19 18 17 16 15 14 14 14 14 14 14 14 14 14 15 16 17 18 18 17 16 15 15 15 16 17 18 19 20 21 22 22 23 24 24 25 27 27 28 29 31 33 36 38 40 42 44 45 46 47 48 49 50 47 47 48 48 48 47 47 45 44 42 40 37
25 24 22 21 20 19 19 18 18 16 15 15 16 15 15 16 18 19 20 20 19 19 18 16 15 15 14 14 15 15 15 14 13 14 15 16 17 18 17 16 15 14 14 15 16 17 18 19 19 20 21 21 22 23 23 24 25 26 28 30 32 35 37 39 41 42 43 45 46 48 49 50 50 49 48 49 51 51 50 49 47 46 46 44 41
26 24 22 20 20 19 19 20 19 19 18 18 17 16 15 16 18 19 19 19 19 18 18 17 16 15 15 15 15 15 14 13 13 14 15 16 17 16 15 14 13 13 14 15 15 17 17 18 19 19 20 21 21 22 23 24 25 27 29 32 34 37 38 40 41 43 44 45 47 49 50 50 50 50 50 50 52 53 53 52 51 50 49 49 46
26 25 23 21 21 21 21 21 21 22 21 20 18 16 16 16 18 19 19 19 19 18 18 17 16 15 15 15 15 14 14 13 13 13 15 16 16 15 14 13 12 13 13 14 15 16 16 17 18 18 19 20 21 22 23 25 26 28 31 34 36 38 39 40 42 44 45 46 47 49 51 51 51 52 52 53 54 55 56 56 56 55 54 53 51
27 26 25 23 22 22 22 23 23 23 22 21 19 17 15 15 18 20 20 20 19 19 18 17 16 16 15 15 14 14 13 13 13 13 14 14 14 14 13 12 12 12 13 13 14 15 15 16 17 17 18 19 20 22 24 26 28 30 33 35 37 38 39 41 43 44 46 47 48 50 51 52 53 54 55 55 57 58 59 59 59 59 59 56 53
28 28 27 26 24 24 24 24 24 23 23 22 21 17 14 16 18 20 20 20 20 19 18 17 16 16 15 15 14 14 13 12 12 13 13 13 13 13 12 11 11 12 12 12 13 14 15 15 16 16 17 18 20 22 23 25 28 31 33 35 37 39 40 42 43 45 47 48 49 51 53 54 54 55 56 57 58 60 60 61 61 62 63 60 55
30 30 29 28 26 26 25 25 27 26 25 24 22 18 15 16 18 18 19 20 20 19 18 16 16 15 15 14 14 14 13 12 12 12 12 12 12 12 11 11 11 11 11 12 13 13 14 14 15 16 17 18 19 21 23 25 28 30 32 34 36 38 40 42 44 45 47 49 49 51 53 55 55 55 56 58 60 61 61 62 64 65 66 64 60
33 33 31 30 29 27 26 28 29 28 29 27 22 17 15 17 18 19 20 20 20 19 17 16 16 15 15 14 14 13 12 12 12 12 12 11 11 11 11 11 11 11 11 11 12 13 14 14 15 16 17 18 20 21 23 25 27 29 31 32 34 36 38 41 43 45 47 49 50 51 53 55 56 56 57 59 61 62 62 63 64 66 66 66 64
35 35 33 32 31 29 28 28 29 30 29 23 17 15 17 19 19 19 19 20 20 18 17 16 16 15 15 14 13 13 12 11 11 11 11 10 10 10 10 11 11 10 11 11 12 13 13 14 15 16 17 18 20 22 23 25 27 28 29 31 32 34 36 38 40 42 45 48 50 51 52 54 56 56 56 58 61 62 63 64 64 66 67 65 64
35 35 34 33 31 29 29 28 28 28 23 16 14 16 18 18 18 18 20 20 19 18 17 17 16 15 14 14 13 12 11 11 11 11 10 9 9 10 10 10 10 10 10 11 11 12 12 13 14 15 17 19 21 22 24 26 27 28 29 30 31 33 35 37 38 41 44 47 49 50 51 53 54 54 54 56 59 62 63 64 65 66 66 64 62
30 31 30 30 29 28 28 26 25 24 18 14 16 18 17 17 17 19 20 20 19 18 18 17 16 15 14 13 12 12 11 10 10 10 9 9 9 9 10 10 9 9 10 10 11 11 12 13 14 15 17 19 21 23 26 27 28 29 29 30 31 33 34 36 38 41 43 46 48 49 50 51 52 53 53 54 57 60 62 62 63 64 64 63 61
27 28 28 27 27 26 24 22 24 24 18 16 18 18 16 16 17 18 20 19 19 19 18 16 15 14 14 13 12 11 10 10 9 9 8 8 9 9 9 9 8 9 9 9 10 10 11 12 14 16 18 20 22 25 27 28 29 29 30 30 31 32 34 35 37 40 42 44 46 48 49 50 51 51 52 53 56 59 61 62 62 62 64 64 62
26 31 31 27 26 25 21 21 25 23 17 17 19 18 17 17 16 17 19 19 19 19 18 16 15 14 13 13 11 10 9 9 8 8 8 9 9 8 8 7 8 8 8 9 9 9 11 12 14 16 18 20 23 25 27 28 29 30 30 31 32 33 34 35 36 38 40 43 45 46 48 50 51 51 51 52 55 59 63 64 63 63 64 64 62
25 31 31 28 26 25 22 24 25 22 19 19 19 18 18 17 17 18 19 20 20 19 18 16 15 14 13 12 10 9 9 8 8 8 9 8 8 8 7 7 7 7 8 8 8 9 10 12 14 16 18 21 24 25 27 28 29 31 31 32 33 34 36 37 38 39 41 42 44 46 47 49 51 52 52 53 54 58 62 64 64 62 61 61 61
29 31 31 30 28 25 25 26 23 21 21 20 19 20 19 18 18 19 20 21 20 19 18 17 15 14 12 11 10 9 8 8 8 8 9 8 7 7 6 6 6 6 7 7 8 9 10 12 14 17 19 22 24 26 27 29 30 31 33 34 35 36 37 39 40 42 43 44 45 47 48 50 52 53 54 54 54 57 60 62 62 60 58 57 59
27 27 26 27 26 26 26 24 21 21 21 20 21 22 20 19 20 21 21 21 20 19 18 16 15 14 12 10 9 9 8 8 8 9 8 7 6 6 6 6 6 5 6 7 8 9 11 13 15 17 20 22 24 25 27 29 30 32 33 34 36 37 38 39 40 42 43 45 46 48 49 50 52 54 55 55 55 57 60 61 60 57 55 55 56
22 22 22 23 24 25 24 24 23 23 22 22 23 22 20 19 21 21 22 22 20 18 17 17 16 14 11 10 9 8 8 8 9 9 8 6 6 5 5 5 5 5 6 7 8 10 11 13 15 18 20 22 23 25 27 28 30 31 33 34 36 37 38 39 39 40 42 44 45 47 49 51 53 55 57 57 57 58 60 61 59 56 53 53 54
22 24 25 25 24 23 23 25 25 25 24 24 24 23 21 20 21 23 23 22 20 19 18 17 15 13 11 11 9 8 8 9 9 8 7 6 6 5 5 5 4 4 6 7 9 10 12 14 16 18 20 21 23 25 26 28 30 31 32 33 34 35 36 37 38 39 41 42 44 47 49 51 53 55 57 59 58 58 59 60 60 56 51 50 51
22 24 26 27 25 23 24 25 25 24 23 23 22 22 21 21 22 24 23 22 20 19 18 17 15 12 11 11 10 9 9 9 9 8 7 6 6 5 5 5 4 4 6 7 9 11 12 14 16 18 20 22 23 25 26 28 29 31 32 33 34 34 35 36 37 38 39 41 43 45 48 51 54 55 57 59 59 59 59 60 60 57 52 50 49
25 24 25 26 25 25 25 25 24 22 21 21 21 21 21 22 24 24 23 23 21 19 18 17 15 13 12 11 10 10 10 9 9 8 7 6 6 6 6 5 5 5 6 8 9 11 13 14 16 18 20 21 23 25 26 28 29 31 32 33 34 35 35 35 36 37 39 40 42 45 47 50 53 55 56 58 59 59 58 59 60 58 54 51 50
27 25 26 27 27 26 25 25 25 24 24 23 22 22 23 24 25 24 24 23 20 18 18 17 16 14 13 11 10 10 10 9 9 8 8 7 7 7 6 6 6 6 7 8 10 11 13 14 16 18 19 21 23 25 26 28 29 30 32 34 35 36 36 36 37 38 39 40 42 44 46 48 51 53 54 56 58 59 58 58 60 60 56 52 50
26 27 28 27 27 26 24 25 26 26 25 23 22 23 25 25 24 24 24 22 20 18 18 17 16 15 13 11 10 11 11 10 9 9 9 8 8 8 7 6 6 7 8 9 10 12 13 15 17 18 20 22 23 24 26 27 29 30 32 33 35 36 37 37 38 39 39 40 41 43 44 46 48 50 52 54 56 59 60 59 60 61 59 55 52
27 29 29 27 27 27 26 26 27 26 24 23 23 25 26 25 25 25 24 22 20 19 18 17 16 15 13 12 12 12 11 10 10 10 10 9 9 9 8 7 7 8 9 10 11 12 14 16 18 19 21 22 24 25 27 28 30 30 32 33 34 36 37 37 38 39 39 40 40 41 42 44 46 48 50 52 55 57 59 60 59 61 61 57 54
30 31 30 29 28 28 28 27 26 25 24 24 24 25 26 26 26 24 22 20 19 18 18 17 16 14 13 12 13 12 11 11 11 11 11 11 10 10 9 8 8 9 10 10 12 13 15 17 19 20 22 23 24 26 27 29 31 32 32 33 35 36 36 36 36 37 37 38 38 39 40 42 44 46 48 51 53 55 57 59 58 59 60 59 56
30 31 31 30 29 29 28 27 26 25 24 24 25 26 26 26 24 23 22 21 20 20 20 18 17 16 14 13 12 12 11 12 12 12 12 12 11 11 10 9 9 10 11 11 12 14 16 17 19 21 22 24 25 26 27 28 30 32 33 34 36 37 37 37 36 36 37 37 38 39 40 41 42 44 46 49 51 52 55 57 58 58 59 59 58
28 29 30 30 29 27 26 26 26 25 25 25 26 28 28 27 26 25 25 24 23 23 22 21 19 16 14 13 13 12 13 14 14 14 14 13 12 11 10 10 10 11 12 12 13 15 16 18 20 22 24 25 26 26 27 29 30 32 33 35 37 38 38 38 38 37 37 37 37 38 39 40 41 43 44 46 49 50 52 54 56 57 58 59 59
30 31 30 29 28 27 26 26 26 25 25 26 28 29 29 28 28 28 28 27 26 25 24 22 19 15 13 13 13 13 14 15 15 15 15 14 13 12 11 11 11 12 13 13 14 16 17 19 21 23 25 26 27 28 28 29 31 32 34 35 37 38 38 38 38 37 37 36 36 36 37 39 40 41 43 44 46 49 50 51 53 55 56 57 58
29 30 29 29 29 28 26 26 27 26 27 28 29 30 30 29 29 29 28 27 26 25 24 22 17 14 14 14 14 15 16 16 16 16 15 14 13 12 11 11 12 13 13 14 15 17 18 20 22 24 25 26 28 28 29 30 31 33 34 36 37 38 38 39 38 38 37 37 36 36 36 37 38 39 41 42 44 46 48 50 51 53 55 55 56
27 29 29 29 28 27 26 27 27 27 28 29 30 31 31 30 29 27 26 26 25 25 23 20 16 15 15 15 15 17 18 18 17 17 16 15 14 13 12 13 13 14 14 15 16 17 19 21 22 24 26 27 28 29 29 30 32 33 35 36 37 38 38 39 38 38 37 36 35 35 35 35 36 37 38 39 41 43 46 48 50 51 52 54 54
27 27 26 26 27 27 28 27 27 28 29 30 31 32 30 28 27 26 26 26 26 25 22 18 16 16 16 16 17 19 19 19 18 17 16 16 14 14 14 14 14 15 15 16 17 18 19 21 23 24 26 27 28 29 29 31 32 33 34 36 37 38 38 38 37 37 36 36 35 34 33 34 34 35 36 37 38 40 42 46 48 49 51 52 53
26 26 26 27 28 28 28 28 28 28 30 31 33 32 29 28 28 28 28 27 27 25 22 19 17 17 17 18 19 20 20 20 19 18 17 16 15 15 15 15 15 16 16 16 17 18 20 22 24 25 26 27 28 29 30 31 32 33 34 35 36 37 37 36 36 36 36 35 34 33 33 32 33 34 35 36 37 37 39 42 45 47 48 50 51
25 26 27 28 29 28 27 27 27 28 30 32 33 31 29 28 28 28 28 28 27 26 23 21 20 20 20 20 20 21 21 20 20 19 18 17 16 16 16 16 16 16 17 17 18 19 21 23 24 25 27 27 28 28 29 31 32 33 34 35 36 36 36 36 36 35 35 35 34 33 32 32 32 32 32 33 34 35 36 38 40 43 45 46 48
24 26 27 28 27 26 25 26 26 28 30 32 32 30 28 28 28 29 29 28 27 26 25 23 22 22 21 21 20 21 21 21 21 19 18 18 18 17 17 17 17 17 17 18 19 20 22 23 25 26 27 27 28 28 29 30 32 33 33 34 35 36 36 36 36 35 35 34 33 32 31 31 32 32 32 32 32 33 34 34 36 38 41 42 44
24 26 27 26 25 24 24 26 27 28 31 33 32 29 28 29 30 30 29 29 29 28 26 23 22 22 22 21 21 21 22 21 20 19 18 18 19 19 18 18 18 18 18 19 20 22 22 23 25 26 27 27 28 28 29 30 32 32 33 33 34 35 36 36 36 35 34 32 32 31 31 31 31 31 32 32 32 32 33 33 33 34 37 39 41
20 22 23 23 22 22 25 28 30 31 33 34 33 30 30 32 32 32 31 31 31 28 25 23 23 23 22 22 22 22 21 21 20 19 19 19 20 19 19 18 19 19 19 20 21 22 23 24 25 26 26 27 27 28 29 30 31 32 32 33 33 34 35 35 34 32 31 30 29 30 30 30 31 31 32 32 32 31 31 32 32 33 34 36 38
18 18 18 17 16 16 19 24 29 32 34 33 32 31 32 33 33 33 33 33 31 28 26 24 24 23 22 22 22 22 21 21 20 19 19 20 20 20 20 20 20 20 20 21 22 23 23 24 25 26 26 27 27 28 30 31 31 31 31 32 32 32 33 33 32 30 28 27 27 28 29 30 30 31 31 32 32 31 31 31 31 32 32 33 34
18 16 15 14 13 13 14 17 22 27 30 31 30 31 31 32 33 35 35 34 32 29 27 25 24 23 22 23 23 22 21 21 20 20 19 20 21 21 21 22 21 21 22 22 23 23 24 24 25 26 26 27 28 29 30 30 31 31 31 31 31 31 31 31 29 26 25 24 24 25 27 28 30 31 32 32 32 32 31 30 30 29 29 30 30
16 13 13 13 12 12 13 14 17 23 28 30 31 32 33 33 35 37 36 34 32 30 27 25 24 23 23 23 23 23 22 21 20 20 20 21 21 22 22 22 23 23 23 23 23 24 24 24 25 25 26 27 28 28 29 30 30 30 30 30 30 30 29 28 26 24 22 21 22 23 25 27 28 30 32 33 33 33 32 31 29 28 28 28 28
13 12 13 14 14 13 13 14 18 22 27 31 34 35 35 35 36 37 36 35 34 30 27 25 24 23 23 23 24 23 22 21 21 21 21 21 22 22 23 23 24 24 24 24 24 24 25 25 25 25 26 27 27 28 29 29 30 30 30 29 29 29 28 26 24 22 20 19 20 21 23 25 27 29 31 32 33 33 33 32 30 28 27 26 26
13 14 15 15 14 13 14 15 17 21 26 31 34 36 36 37 38 38 39 37 34 29 26 24 23 23 23 23 23 22 22 21 21 21 22 22 23 23 24 25 25 25 25 24 24 25 25 25 25 26 26 27 27 28 28 29 29 29 29 29 28 28 27 26 23 21 20 19 19 20 22 24 27 29 30 31 32 32 33 33 32 30 28 25 25
16 16 16 14 13 13 14 15 17 20 25 29 32 35 38 39 40 40 40 37 32 28 25 23 23 22 23 23 22 22 22 22 22 22 23 23 24 25 25 26 26 26 25 25 25 25 26 26 26 26 27 27 27 27 28 28 28 28 28 28 28 27 26 25 23 21 19 19 18 19 21 24 27 28 28 29 31 32 33 33 34 33 30 27 24
19 17 17 17 16 15 14 15 17 20 23 25 28 32 36 39 40 40 38 34 30 26 24 22 22 22 22 22 22 22 22 23 23 23 24 24 25 25 26 26 26 26 25 25 26 26 26 26 26 27 27 27 27 27 27 27 27 27 27 27 27 26 25 23 22 21 20 19 19 19 20 23 26 28 27 28 30 32 33 33 34 34 33 30 26
22 20 19 19 19 17 16 16 17 18 21 23 25 28 31 35 37 38 36 32 28 25 23 22 21 21 22 22 23 23 23 24 24 25 25 25 25 26 26 26 26 26 26 26 26 26 27 27 27 27 28 28 28 27 27 27 27 28 28 27 26 25 23 22 21 20 20 21 21 20 20 22 24 25 26 27 29 32 33 34 33 33 33 32 29
23 22 21 21 20 18 17 16 16 17 18 21 24 26 28 32 37 39 37 33 29 25 23 22 21 21 22 23 23 24 24 24 25 25 25 25 26 26 26 26 26 26 26 27 27 27 27 28 28 28 29 28 28 28 27 27 27 28 28 28 26 25 23 22 20 20 20 21 21 20 20 20 21 23 24 25 27 29 31 33 33 32 32 32 31
23 23 22 22 20 17 15 15 16 16 16 19 23 25 28 33 38 40 39 36 31 26 24 23 22 22 22 23 23 24 24 24 25 25 25 26 26 26 26 26 26 26 27 27 28 28 28 28 29 29 29 29 29 28 28 28 28 28 28 27 26 25 24 22 21 20 19 19 20 20 20 19 19 20 22 23 24 26 29 31 31 31 30 30 30
22 21 20 19 17 15 14 15 16 16 17 20 24 27 31 36 40 41 40 37 31 26 24 23 22 22 22 23 23 24 24 24 25 25 25 26 26 26 26 26 27 27 28 28 29 29 29 29 30 30 30 30 30 29 29 29 29 29 28 27 26 25 24 23 22 20 20 19 20 20 21 21 20 20 21 21 22 23 26 28 30 30 29 28 28
21 20 20 18 18 17 17 17 17 17 18 21 25 30 34 38 41 41 39 36 30 25 23 23 22 22 22 22 23 24 24 24 25 25 26 26 26 26 27 27 28 28 29 30 30 30 30 30 31 31 31 31 30 30 30 30 30 29 28 27 26 25 25 24 22 21 20 20 20 21 22 22 22 22 23 23 22 23 25 27 29 29 29 27 26
Wind_Direction
219 219 223 226 225 224 226 229 235 243 249 260 273 285 293 293 293 295 294 293 292 291 290 288 284 282 280 280 282 287 293 297 298 299 298 297 298 300 303 306 308 312 315 318 321 324 327 328 328 329 330 333 336 337 338 339 340 341 341 341 340 338 336 335 334 334 337 337 335 334 333 331 331 331 328 326 326 325 323 322 319 315 312 309 307
221 223 226 228 226 225 229 234 238 242 246 257 275 288 294 294 295 295 293 291 288 286 284 281 278 275 274 276 280 285 290 293 294 295 294 294 296 299 303 306 310 314 317 320 324 327 328 329 329 332 334 337 338 339 340 341 342 343 343 342 341 339 337 336 335 336 338 340 339 337 336 334 334 333 331 328 327 326 325 324 321 318 316 314 311
223 225 226 227 227 228 232 236 237 239 245 258 274 286 292 294 295 294 290 287 283 279 277 273 271 270 271 274 278 283 287 289 290 290 291 294 297 300 304 307 312 316 319 323 327 328 329 330 333 335 337 339 340 341 342 343 344 344 344 343 341 339 338 338 340 340 340 341 340 338 338 337 335 335 332 329 328 327 327 327 326 324 322 319 315
226 228 228 227 228 230 234 236 237 240 247 259 271 282 288 290 291 290 286 282 278 275 271 269 267 266 268 273 277 281 284 285 287 289 292 296 299 302 305 309 313 318 322 326 328 328 330 333 336 338 339 340 342 344 344 345 345 345 344 343 341 341 342 343 344 343 341 341 341 340 339 338 337 336 333 330 329 329 329 330 329 328 327 324 321
230 232 232 230 230 233 236 238 238 239 246 258 270 280 285 287 288 286 282 278 274 272 269 266 265 265 267 272 275 279 280 282 285 289 294 299 301 304 307 310 315 319 323 327 328 330 333 336 338 338 340 342 344 345 346 346 346 345 344 344 344 345 347 347 346 344 343 342 341 341 341 339 338 338 335 332 331 331 332 331 332 332 330 327 326
233 235 235 235 236 238 240 240 240 241 249 261 271 278 283 287 288 283 279 274 270 269 267 265 264 264 267 271 274 276 278 281 287 292 297 301 303 306 307 310 316 321 323 327 329 332 335 337 338 339 342 344 345 346 348 348 347 346 346 347 348 350 350 349 346 345 344 344 343 342 342 341 340 339 338 335 333 334 333 332 333 335 333 329 327
234 235 235 236 240 241 241 242 242 245 253 262 269 275 283 288 288 282 277 272 268 267 265 263 263 264 267 270 272 275 277 282 289 295 299 302 305 306 306 310 317 320 323 328 331 334 337 338 339 341 344 345 346 347 348 349 350 349 350 351 353 353 351 349 347 345 345 345 344 343 343 343 341 340 339 337 336 336 336 334 334 336 334 331 330
235 235 233 233 238 242 243 243 244 247 254 260 263 269 279 287 288 286 281 274 268 265 262 261 261 262 265 268 270 274 278 283 290 296 300 303 304 304 304 310 317 319 324 330 333 334 337 338 340 344 346 347 347 349 350 351 353 353 354 355 355 353 351 349 348 347 346 347 346 345 344 344 343 341 340 339 338 339 341 340 338 337 334 333 332
237 236 233 232 235 241 243 243 244 248 253 255 256 261 270 280 287 290 285 275 267 262 260 259 260 262 264 266 269 273 277 283 290 296 301 302 302 302 304 311 317 320 325 330 333 335 337 339 343 346 348 349 350 353 354 354 355 356 357 357 355 353 351 350 349 348 348 348 347 346 345 346 346 343 342 341 341 341 343 342 341 339 336 333 333
238 238 236 234 235 241 245 245 245 249 251 249 249 255 264 276 286 290 284 273 265 259 257 257 259 261 263 265 268 272 277 284 291 296 300 300 299 300 305 313 317 320 326 331 334 335 337 340 345 348 350 352 354 357 358 358 359 360 360 357 355 352 351 351 350 349 349 349 348 347 346 347 348 345 343 342 342 343 344 344 342 340 338 335 334
238 238 238 237 236 238 243 245 245 248 249 244 243 249 260 271 282 287 282 273 264 257 255 256 257 259 260 263 266 270 277 285 291 297 298 298 298 301 307 314 316 320 327 332 334 335 337 342 347 350 352 355 359 1 1 2 3 3 1 358 355 353 352 351 351 351 349 349 349 349 348 348 349 347 344 343 344 344 345 345 344 341 339 337 335
240 239 239 240 240 239 241 241 242 245 243 237 236 243 253 263 272 279 278 271 262 256 254 254 255 256 258 261 265 270 278 286 291 295 295 295 298 302 308 313 315 320 328 332 334 335 338 344 348 351 354 358 3 4 4 5 6 4 2 358 356 355 353 352 352 351 350 349 350 351 349 349 349 348 346 345 344 345 345 346 344 340 338 337 336
239 241 241 242 243 246 246 242 243 246 244 238 238 244 250 259 266 273 275 268 258 253 252 252 252 254 256 259 264 271 279 285 290 292 292 294 299 302 308 312 313 321 329 332 334 336 341 347 350 352 356 1 4 5 5 8 7 4 1 359 357 356 355 354 353 352 351 351 351 352 351 350 349 349 348 346 345 346 347 347 344 340 338 337 336
239 242 242 243 246 249 250 247 247 250 250 252 259 256 256 261 267 275 275 265 254 250 249 249 250 251 254 259 264 271 278 284 287 288 290 294 299 302 307 309 312 322 329 331 334 338 344 350 353 354 359 3 5 5 7 8 6 3 1 359 358 357 355 356 354 353 353 353 353 353 352 351 350 349 349 348 347 347 347 346 344 340 338 337 336
243 247 246 247 248 250 252 253 256 256 252 256 262 259 258 259 267 277 272 259 251 249 247 247 248 250 254 258 264 271 277 282 283 285 290 293 297 300 302 305 313 323 327 330 334 340 346 352 355 358 2 3 4 6 7 7 4 3 1 359 358 358 357 356 355 354 355 355 354 354 354 352 351 351 350 349 348 348 348 346 343 340 338 338 337
237 246 248 247 250 255 253 250 256 259 252 251 257 254 252 254 263 272 264 252 248 247 244 245 246 247 252 257 262 269 274 277 280 283 287 290 293 296 297 303 315 322 324 329 335 342 349 355 358 1 3 3 5 7 6 4 2 0 360 359 358 358 358 358 357 356 356 356 355 356 355 353 353 352 352 351 350 350 349 347 345 342 340 340 340
228 238 240 241 251 260 251 241 253 259 251 251 253 247 246 252 259 261 254 245 244 243 241 242 243 245 251 255 260 267 270 272 275 278 282 285 289 291 294 305 315 318 321 328 336 344 351 357 1 2 2 3 5 6 3 0 358 357 357 357 357 357 358 358 358 358 358 356 355 356 356 354 354 354 354 354 354 353 351 350 348 346 343 341 341
226 234 236 240 253 257 245 244 254 253 243 244 246 242 245 250 253 253 247 242 241 241 239 239 240 244 249 254 260 263 263 266 270 272 277 281 283 286 293 304 309 312 320 327 335 344 352 358 1 1 2 3 4 3 360 357 355 354 354 355 356 356 356 357 358 359 358 357 355 356 356 356 355 356 357 357 357 357 354 352 351 348 345 341 340
224 230 236 244 249 244 240 248 251 242 239 240 237 239 245 248 252 253 246 241 241 239 238 237 239 243 245 249 255 255 256 263 267 269 273 277 280 286 293 300 302 309 321 327 333 343 350 356 359 359 2 3 2 359 356 354 352 351 352 353 354 355 355 356 357 357 357 357 355 354 356 356 356 357 359 359 0 0 358 355 353 351 347 343 342
224 231 238 242 237 231 238 247 242 239 245 241 233 238 245 249 254 252 245 241 239 236 236 237 238 240 243 244 244 246 252 260 262 265 269 272 276 282 286 292 299 311 321 325 331 341 348 353 357 359 1 2 359 356 353 351 350 350 350 351 351 353 355 356 356 356 356 356 355 354 355 357 357 358 360 1 2 3 2 359 356 354 351 347 346
222 233 237 233 230 232 239 242 240 244 248 240 236 242 246 249 253 249 242 240 236 232 234 238 240 241 240 237 236 241 249 255 258 261 264 265 269 274 279 285 295 310 318 323 332 340 346 350 354 357 359 359 356 353 350 349 348 348 349 349 350 351 352 354 355 356 355 355 355 354 354 357 358 359 1 2 3 5 5 3 360 358 357 354 350
220 231 233 230 232 236 235 237 242 247 244 237 240 246 247 249 252 248 241 237 233 231 234 238 241 239 232 229 233 242 248 252 256 259 259 260 264 266 269 273 284 304 314 323 332 339 344 348 351 354 356 355 353 350 348 347 346 347 346 347 348 349 350 351 353 354 354 354 354 355 355 357 359 0 1 2 4 5 6 5 3 2 3 2 355
234 235 230 226 228 231 233 239 244 244 239 236 241 247 247 247 248 246 241 235 232 232 234 235 234 229 224 226 232 241 248 253 255 255 253 255 256 254 255 260 274 296 310 322 332 339 342 344 348 351 352 351 349 347 346 345 345 344 344 344 345 346 347 348 349 352 353 354 354 355 356 357 359 1 2 2 4 5 7 7 6 5 7 8 3
240 236 223 219 221 227 234 240 241 240 240 241 245 249 250 247 245 242 238 233 229 228 228 228 225 220 219 225 230 239 248 251 250 248 246 246 245 243 247 256 270 290 307 320 331 336 338 340 346 349 349 348 346 344 344 343 343 342 341 341 342 343 344 345 347 349 352 353 354 356 357 358 360 1 2 2 3 5 7 8 8 8 9 12 10
233 227 216 216 223 229 232 235 239 243 246 247 248 251 251 247 243 239 235 231 227 225 224 222 218 215 218 225 233 241 248 248 245 243 240 237 234 234 241 253 271 290 306 318 327 332 334 337 343 346 346 345 343 342 341 341 340 339 339 339 339 340 341 343 345 347 350 353 355 357 358 359 0 2 2 2 3 4 7 9 10 11 12 14 16
225 217 213 218 228 232 233 235 240 244 244 244 247 248 246 241 237 235 233 228 223 223 224 221 216 213 217 227 237 242 244 243 241 238 234 230 230 233 240 254 272 290 303 314 323 327 331 337 342 345 344 342 340 339 338 338 338 338 338 337 337 337 339 341 343 346 349 351 354 356 357 358 360 1 2 3 3 4 6 8 11 12 13 14 17
218 213 214 221 228 232 234 236 239 241 242 245 247 247 242 235 232 231 229 223 219 220 222 219 214 211 217 230 237 238 238 237 236 235 230 226 227 233 241 255 272 288 300 311 320 325 331 338 342 343 342 339 338 337 336 336 336 337 337 336 336 336 338 340 342 344 346 348 351 354 356 358 358 0 2 4 5 5 6 8 10 13 14 14 16
214 213 217 224 227 228 231 234 236 239 243 245 245 243 238 233 231 229 225 220 218 217 218 215 211 211 222 233 233 230 231 233 233 232 228 226 228 235 244 257 272 286 298 309 318 325 332 338 340 340 339 337 336 336 335 334 334 335 335 335 335 335 337 338 340 342 343 346 349 352 355 357 358 360 2 4 6 6 6 8 10 12 14 16 16
215 216 219 222 224 226 230 233 235 238 240 240 239 236 232 229 228 225 220 217 214 211 210 207 207 214 225 230 227 225 228 231 231 230 227 228 232 238 248 261 273 286 298 309 318 325 332 336 337 336 335 334 334 334 333 333 332 333 333 333 333 334 335 337 339 342 343 345 347 350 353 356 358 360 1 3 6 8 7 8 10 12 14 17 18
214 220 220 217 219 227 232 234 236 237 238 237 235 231 228 225 221 216 213 213 212 210 208 205 207 216 225 225 223 223 226 230 230 229 228 229 234 242 253 265 277 287 298 308 316 323 329 333 334 333 332 331 332 333 334 333 332 331 332 333 334 334 335 336 339 342 343 344 346 348 351 354 357 360 1 2 5 7 9 9 10 11 14 16 18
214 220 219 215 220 230 234 234 237 238 238 236 232 229 228 225 220 215 212 211 209 207 205 207 212 220 225 226 224 224 227 229 229 228 230 232 237 246 257 269 280 289 297 306 314 321 328 332 331 329 329 330 331 333 334 333 332 332 333 334 335 335 335 336 338 341 343 344 346 347 349 352 355 358 1 2 4 5 8 10 11 12 14 16 17
217 219 219 218 223 229 232 234 236 237 237 234 230 228 227 224 219 217 216 215 211 206 204 208 214 220 224 227 227 228 230 230 228 229 232 235 241 250 261 271 280 288 296 304 311 319 326 329 328 327 327 329 330 332 334 333 332 332 333 335 335 336 336 337 339 341 343 344 345 346 347 350 353 357 360 2 4 4 6 9 12 13 14 15 17
220 220 221 221 222 225 232 236 237 236 235 233 230 228 227 224 219 216 216 217 214 209 207 210 214 218 223 227 229 231 232 231 230 231 235 239 245 254 264 272 280 287 293 301 308 316 322 324 324 324 326 327 329 331 332 332 332 333 334 335 336 336 336 338 339 341 343 343 344 345 346 347 350 354 358 2 4 5 6 8 10 13 14 15 17
222 220 219 218 221 227 233 236 237 237 235 231 229 228 226 223 218 214 214 215 212 209 209 210 212 217 225 229 231 233 232 232 232 234 237 243 249 257 265 273 279 285 291 298 305 313 318 320 321 323 325 327 329 330 331 331 332 333 334 335 335 335 336 338 340 342 343 343 343 344 344 345 347 350 355 359 4 6 7 7 9 11 14 15 16
221 217 214 216 224 232 235 234 235 236 234 231 229 227 223 218 214 212 211 211 208 206 208 209 211 218 225 228 231 233 233 233 234 237 240 246 252 258 266 273 278 284 289 295 302 310 315 318 320 322 323 325 327 328 329 330 331 332 334 334 334 334 335 337 341 343 343 343 343 343 344 344 346 348 352 356 0 5 8 9 9 10 13 14 16
220 215 214 219 228 237 238 235 234 235 235 233 231 227 222 217 213 211 209 207 205 204 206 207 210 216 222 226 230 233 234 234 237 239 243 249 254 259 266 272 277 283 288 294 301 309 314 317 318 319 321 323 324 326 327 329 330 331 332 332 332 333 334 337 341 345 345 344 343 344 344 344 344 346 349 353 357 2 7 10 10 10 11 13 15
219 213 216 224 232 238 238 236 235 235 235 233 231 227 223 218 213 210 208 205 203 203 205 208 212 217 222 226 229 231 233 235 238 241 245 251 255 259 264 271 277 282 288 294 302 309 313 315 316 317 318 320 322 323 325 327 328 329 331 331 331 332 333 336 341 345 346 344 344 345 344 344 345 345 347 350 353 357 2 8 11 11 11 12 14
215 213 220 229 234 237 238 237 236 236 235 233 230 225 221 217 213 210 208 205 203 203 207 212 216 219 223 227 229 230 232 235 238 242 246 250 255 259 264 271 277 282 287 294 300 306 310 312 312 314 316 317 319 321 323 324 326 327 328 328 329 330 332 335 340 345 346 345 345 346 346 345 346 346 346 348 350 353 357 3 8 11 12 12 13
213 215 223 230 235 238 238 235 233 232 232 231 227 221 217 215 211 209 208 206 204 205 211 217 219 220 225 229 231 232 235 237 239 242 245 249 255 260 266 272 277 281 286 292 298 303 307 308 309 310 313 315 317 320 321 322 323 325 326 326 328 330 332 335 340 344 345 346 347 348 348 348 348 348 347 347 348 350 353 358 3 8 11 12 13
210 215 224 231 239 245 244 239 236 234 232 229 225 220 216 214 210 209 209 206 204 208 215 219 219 221 226 230 232 234 236 238 240 242 245 249 254 260 266 271 276 280 285 291 297 301 304 305 306 308 310 313 316 317 319 320 321 322 323 324 327 329 332 335 339 342 345 347 350 351 352 353 354 353 351 350 348 348 350 353 358 3 8 11 12
209 218 232 243 249 252 251 247 245 242 238 234 229 224 220 215 211 211 210 206 205 210 216 218 218 221 226 229 232 235 236 237 240 244 247 250 255 259 265 270 274 279 285 290 295 298 300 301 303 305 308 311 313 315 316 317 318 320 321 322 325 329 331 334 337 341 344 348 352 356 357 358 358 357 357 355 353 351 350 350 352 357 2 7 10
209 225 247 260 264 263 260 253 248 245 240 234 228 225 221 216 213 212 210 206 207 212 216 216 217 222 225 228 231 234 234 236 240 244 248 253 256 260 264 269 273 278 284 289 293 296 297 299 301 304 306 309 310 312 313 315 316 317 318 321 324 327 330 333 336 339 343 347 351 355 357 358 358 358 357 357 356 354 352 350 349 351 355 0 5
213 228 248 262 271 270 263 256 252 249 244 235 227 221 218 216 214 212 209 207 210 214 215 215 219 223 225 228 231 234 235 237 240 244 249 254 258 261 266 270 274 279 283 287 291 294 295 296 299 301 304 306 308 309 311 312 313 315 316 319 322 325 328 332 335 337 340 343 348 351 353 354 355 356 356 356 355 355 355 353 350 348 349 353 359
218 228 243 259 267 263 257 256 257 254 249 240 231 223 218 216 215 212 210 211 213 214 215 218 222 225 226 227 230 234 236 239 242 246 251 255 260 264 268 271 274 278 282 286 289 291 292 294 296 299 302 303 305 307 308 310 311 312 313 316 320 323 326 329 331 332 334 337 342 346 349 349 349 352 355 356 356 356 356 355 354 351 348 348 351
218 227 241 253 257 254 254 258 260 257 254 248 239 230 223 219 216 214 213 213 213 214 216 221 225 227 227 228 230 233 236 240 244 248 252 257 261 265 268 271 274 278 281 285 287 288 289 292 294 297 299 301 302 304 305 306 308 309 310 313 316 320 323 325 325 325 327 330 335 341 344 344 344 346 351 355 357 357 357 357 356 355 352 347 346
220 226 237 242 245 249 254 258 261 261 261 257 248 238 231 226 220 215 212 212 212 215 218 223 227 229 229 230 231 233 237 242 246 249 254 258 261 265 268 271 274 278 280 282 284 285 287 290 292 295 298 299 299 301 302 303 304 305 306 309 313 317 319 320 320 319 319 321 326 333 338 340 341 344 348 353 356 358 358 357 356 356 355 351 346
221 226 233 237 241 246 250 254 260 264 265 261 251 242 237 231 222 213 210 211 213 217 220 224 228 230 231 232 233 235 237 242 246 250 254 258 261 265 268 271 274 276 278 280 281 283 286 288 291 294 296 297 298 299 300 300 301 302 303 307 312 315 316 316 315 314 314 315 318 326 333 336 339 342 346 350 352 353 354 355 355 355 355 354 351
227 231 236 238 240 242 245 250 256 262 263 257 246 237 230 223 215 209 209 213 216 219 223 226 229 231 232 233 234 235 237 241 245 249 254 257 261 264 267 269 272 274 276 278 280 282 284 287 289 291 293 295 296 297 298 298 299 300 302 306 310 312 313 312 311 311 312 313 316 321 327 331 333 337 340 344 346 346 346 348 351 353 354 354 353
234 239 241 239 239 241 247 253 258 263 261 249 236 226 219 213 209 208 211 214 217 221 224 226 228 232 233 235 236 237 239 241 245 249 253 257 260 264 266 268 270 273 274 276 278 279 281 284 286 288 290 292 293 294 295 295 296 297 300 304 307 308 308 307 307 308 310 312 314 316 318 320 323 327 330 334 339 342 341 341 344 349 352 352 353
239 240 240 239 239 244 250 255 261 267 264 246 228 217 211 208 208 210 213 215 218 222 224 225 229 234 236 238 239 241 242 245 248 251 255 259 261 264 266 267 269 271 272 274 275 277 279 281 283 285 287 289 290 292 292 292 294 296 299 301 303 303 302 302 302 303 305 307 309 310 310 310 312 315 319 323 329 334 336 336 339 345 349 349 351
243 239 237 239 242 247 251 254 260 269 265 246 226 214 208 207 208 211 214 216 218 221 225 228 234 238 239 241 243 245 247 250 253 255 258 261 263 264 265 266 267 269 271 272 274 275 277 279 281 283 285 287 288 289 290 291 293 295 297 299 300 299 298 298 297 295 295 298 300 301 302 303 305 308 312 315 319 325 330 332 336 341 345 345 346
Height
3139 3140 3141 3143 3144 3145 3147 3147 3148 3149 3150 3150 3150 3150 3150 3150 3150 3150 3149 3149 3149 3148 3148 3148 3148 3148 3148 3148 3148 3148 3147 3147 3147 3147 3146 3146 3145 3144 3143 3142 3141 3140 3139 3137 3136 3135 3133 3132 3131 3129 3127 3125 3123 3121 3118 3116 3114 3111 3109 3106 3104 3100 3098 3095 3091 3089 3088 3085 3080 3076 3072 3067 3064 3059 3054 3050 3047 3045 3043 3040 3037 3033 3030 3026 3023
3137 3139 3140 3141 3143 3144 3145 3146 3146 3147 3148 3148 3149 3149 3149 3148 3148 3147 3147 3147 3147 3147 3147 3146 3146 3146 3146 3146 3146 3146 3146 3146 3146 3145 3145 3144 3143 3142 3141 3140 3139 3138 3137 3136 3134 3133 3132 3131 3129 3128 3125 3123 3121 3119 3117 3114 3112 3109 3107 3105 3103 3100 3096 3093 3089 3086 3083 3080 3077 3073 3069 3064 3059 3055 3049 3045 3042 3039 3037 3035 3032 3028 3025 3021 3017
3136 3137 3139 3140 3141 3142 3143 3144 3144 3145 3146 3147 3147 3147 3147 3146 3146 3145 3145 3145 3145 3145 3145 3145 3144 3144 3144 3145 3145 3145 3145 3144 3144 3144 3143 3143 3142 3141 3140 3139 3138 3136 3135 3134 3133 3132 3131 3129 3128 3126 3124 3122 3120 3117 3115 3113 3110 3108 3106 3104 3101 3098 3095 3091 3087 3083 3079 3076 3073 3068 3064 3060 3055 3051 3046 3041 3037 3034 3031 3028 3026 3023 3019 3015 3011
3134 3135 3137 3138 3139 3140 3141 3142 3143 3143 3144 3145 3145 3145 3145 3144 3144 3144 3144 3144 3144 3144 3143 3143 3143 3143 3143 3143 3143 3144 3143 3143 3143 3142 3142 3141 3140 3139 3138 3137 3136 3135 3134 3133 3132 3131 3129 3128 3126 3124 3122 3120 3118 3116 3113 3111 3109 3107 3105 3102 3100 3097 3093 3089 3084 3080 3076 3073 3070 3065 3061 3056 3052 3048 3042 3037 3033 3030 3026 3022 3019 3016 3013 3009 3005
3131 3133 3135 3136 3137 3138 3139 3140 3141 3141 3142 3143 3143 3143 3142 3142 3142 3142 3142 3142 3142 3142 3141 3141 3141 3141 3142 3142 3142 3142 3142 3141 3141 3141 3140 3140 3139 3138 3137 3135 3134 3133 3132 3131 3130 3129 3128 3127 3125 3123 3121 3119 3117 3114 3112 3110 3108 3106 3103 3101 3098 3094 3090 3086 3082 3079 3075 3071 3067 3063 3058 3053 3048 3044 3039 3032 3027 3024 3020 3016 3012 3008 3004 3001 2998
3129 3131 3133 3134 3135 3136 3137 3138 3139 3140 3140 3141 3141 3141 3141 3140 3140 3141 3140 3140 3140 3140 3140 3140 3140 3140 3140 3140 3140 3140 3140 3140 3139 3139 3139 3139 3138 3137 3135 3134 3133 3132 3131 3130 3129 3128 3127 3125 3124 3122 3120 3118 3115 3113 3111 3109 3107 3105 3102 3099 3095 3091 3087 3084 3081 3077 3073 3069 3064 3060 3055 3050 3044 3040 3036 3029 3023 3018 3013 3008 3005 3002 2997 2993 2991
3127 3129 3131 3132 3133 3134 3135 3136 3137 3138 3139 3139 3139 3139 3139 3139 3139 3139 3139 3138 3138 3138 3138 3138 3138 3139 3139 3139 3139 3139 3139 3138 3138 3138 3138 3137 3137 3136 3134 3133 3132 3131 3130 3129 3128 3127 3126 3124 3122 3120 3118 3116 3114 3112 3110 3108 3106 3103 3100 3096 3092 3088 3085 3082 3079 3075 3071 3067 3062 3057 3052 3047 3041 3036 3031 3026 3020 3015 3008 3001 2996 2993 2989 2985 2982
3125 3126 3128 3130 3131 3131 3133 3134 3135 3136 3137 3137 3137 3137 3137 3137 3137 3137 3137 3136 3136 3136 3136 3136 3137 3137 3137 3137 3137 3137 3137 3137 3136 3136 3136 3136 3135 3134 3133 3132 3131 3130 3129 3128 3127 3126 3124 3123 3121 3119 3117 3115 3113 3111 3109 3106 3104 3101 3097 3093 3089 3086 3084 3080 3077 3073 3069 3065 3060 3055 3049 3045 3039 3032 3027 3021 3015 3009 3004 2996 2989 2985 2982 2978 2975
3122 3123 3125 3127 3128 3129 3130 3132 3133 3133 3134 3135 3135 3135 3135 3135 3135 3135 3134 3134 3134 3134 3134 3135 3135 3135 3135 3135 3135 3135 3135 3135 3135 3135 3135 3134 3134 3133 3132 3131 3130 3129 3128 3127 3126 3125 3123 3122 3120 3118 3116 3114 3112 3110 3107 3105 3102 3098 3094 3090 3088 3085 3082 3079 3075 3070 3066 3062 3057 3052 3046 3041 3036 3028 3022 3017 3010 3003 2998 2993 2986 2980 2974 2970 2968
3119 3120 3122 3124 3126 3127 3128 3129 3130 3131 3131 3132 3132 3132 3132 3132 3132 3132 3132 3132 3132 3132 3132 3133 3133 3133 3133 3133 3133 3134 3134 3134 3133 3134 3133 3133 3132 3131 3131 3130 3129 3128 3127 3126 3125 3124 3122 3121 3119 3117 3116 3114 3111 3109 3107 3104 3100 3096 3092 3089 3087 3084 3080 3077 3073 3068 3064 3060 3055 3049 3043 3038 3033 3026 3019 3013 3007 3001 2995 2988 2981 2974 2968 2961 2958
3116 3117 3119 3120 3122 3125 3126 3127 3127 3128 3128 3128 3128 3128 3129 3129 3130 3130 3130 3130 3130 3130 3130 3130 3131 3131 3131 3131 3132 3132 3132 3132 3132 3132 3132 3131 3131 3130 3129 3129 3128 3127 3126 3124 3124 3122 3121 3120 3118 3117 3115 3113 3111 3108 3106 3103 3099 3095 3092 3090 3087 3083 3079 3075 3071 3067 3062 3058 3053 3048 3041 3035 3030 3024 3017 3010 3004 2998 2991 2985 2977 2969 2963 2956 2950
3112 3114 3115 3117 3119 3121 3123 3124 3124 3124 3124 3123 3123 3124 3126 3126 3127 3128 3128 3128 3128 3128 3128 3128 3129 3129 3129 3130 3130 3131 3131 3131 3131 3130 3130 3130 3129 3128 3128 3127 3126 3125 3124 3123 3122 3121 3120 3119 3117 3115 3114 3112 3109 3107 3105 3102 3098 3095 3093 3090 3087 3084 3079 3075 3070 3066 3061 3057 3052 3047 3040 3033 3028 3022 3015 3007 3000 2994 2988 2982 2976 2967 2961 2955 2947
3109 3110 3112 3113 3115 3117 3118 3120 3120 3120 3119 3119 3121 3122 3123 3124 3125 3125 3126 3125 3125 3126 3126 3126 3127 3127 3128 3128 3129 3129 3129 3129 3129 3129 3128 3128 3128 3127 3126 3126 3125 3124 3123 3122 3121 3120 3119 3117 3116 3114 3112 3110 3108 3106 3103 3100 3097 3095 3093 3090 3087 3084 3080 3076 3071 3067 3062 3056 3051 3046 3039 3033 3026 3021 3014 3007 2999 2992 2985 2979 2973 2966 2959 2953 2945
3105 3107 3108 3110 3112 3113 3114 3115 3116 3116 3116 3118 3119 3120 3121 3121 3122 3123 3123 3123 3123 3123 3124 3124 3125 3125 3126 3127 3127 3127 3128 3127 3127 3127 3127 3127 3126 3125 3125 3124 3124 3123 3122 3121 3120 3119 3118 3116 3114 3113 3111 3108 3107 3105 3102 3099 3097 3095 3093 3090 3087 3084 3080 3076 3072 3067 3062 3056 3050 3045 3039 3033 3027 3020 3015 3008 3000 2992 2984 2977 2970 2963 2956 2950 2944
3103 3104 3105 3107 3109 3110 3111 3112 3112 3112 3113 3115 3117 3118 3118 3119 3120 3120 3121 3121 3121 3122 3122 3123 3123 3124 3124 3125 3125 3126 3126 3126 3126 3125 3125 3125 3125 3124 3123 3123 3122 3121 3121 3120 3119 3118 3116 3115 3113 3111 3109 3107 3105 3103 3100 3097 3096 3094 3092 3089 3086 3083 3079 3075 3071 3066 3061 3056 3050 3045 3039 3034 3028 3021 3015 3008 3001 2993 2986 2978 2970 2961 2953 2946 2940
3100 3102 3103 3104 3105 3107 3108 3110 3110 3110 3110 3113 3115 3115 3116 3116 3117 3118 3118 3118 3119 3119 3120 3121 3121 3122 3123 3123 3124 3124 3124 3124 3124 3124 3124 3123 3123 3123 3122 3121 3121 3120 3119 3119 3118 3116 3115 3114 3112 3110 3108 3106 3104 3101 3098 3096 3095 3093 3091 3089 3086 3083 3079 3075 3071 3066 3060 3056 3051 3045 3040 3034 3029 3023 3016 3009 3001 2992 2984 2977 2969 2959 2949 2940 2933
3098 3100 3101 3101 3103 3104 3106 3108 3108 3108 3109 3111 3112 3113 3113 3114 3114 3115 3115 3116 3116 3117 3118 3119 3119 3120 3121 3121 3122 3122 3122 3122 3122 3122 3122 3122 3122 3121 3121 3120 3119 3119 3118 3118 3116 3115 3114 3113 3111 3109 3107 3105 3102 3099 3097 3095 3094 3092 3090 3088 3085 3081 3078 3075 3071 3066 3061 3056 3051 3046 3041 3035 3029 3023 3017 3009 3001 2991 2981 2972 2964 2955 2945 2936 2928
3096 3097 3098 3099 3100 3102 3104 3105 3105 3106 3107 3108 3110 3110 3110 3111 3111 3112 3113 3113 3114 3115 3116 3116 3117 3118 3119 3120 3120 3121 3121 3121 3121 3121 3121 3121 3120 3120 3119 3119 3118 3118 3117 3116 3115 3114 3113 3111 3110 3108 3106 3103 3100 3098 3096 3095 3093 3091 3088 3086 3083 3080 3076 3072 3068 3064 3060 3056 3051 3046 3041 3035 3029 3023 3016 3009 3001 2992 2981 2971 2961 2952 2943 2935 2927
3093 3094 3096 3097 3098 3100 3101 3102 3103 3104 3105 3106 3107 3108 3108 3108 3109 3110 3111 3111 3112 3113 3114 3114 3115 3116 3117 3118 3118 3119 3119 3119 3119 3119 3119 3119 3119 3118 3118 3118 3118 3117 3116 3115 3114 3113 3112 3110 3109 3107 3104 3101 3099 3097 3095 3094 3092 3089 3086 3084 3081 3078 3074 3069 3065 3061 3058 3054 3049 3044 3040 3034 3028 3021 3015 3008 3000 2992 2982 2972 2962 2953 2944 2935 2928
3090 3092 3093 3094 3095 3097 3098 3099 3100 3101 3102 3103 3104 3104 3105 3105 3106 3107 3109 3109 3110 3111 3112 3113 3114 3114 3115 3116 3117 3117 3117 3118 3118 3118 3118 3117 3117 3117 3117 3117 3117 3116 3115 3114 3113 3112 3111 3109 3107 3105 3103 3100 3098 3096 3095 3093 3091 3088 3085 3082 3079 3075 3072 3068 3064 3060 3056 3052 3048 3043 3038 3033 3026 3020 3013 3006 2999 2991 2983 2974 2965 2956 2945 2936 2929
3088 3090 3091 3092 3093 3094 3095 3096 3097 3098 3099 3100 3101 3101 3102 3103 3104 3105 3106 3107 3108 3109 3110 3111 3112 3113 3114 3115 3115 3115 3115 3116 3116 3116 3116 3116 3116 3116 3116 3116 3115 3115 3114 3114 3112 3111 3110 3108 3106 3104 3101 3099 3098 3096 3094 3092 3090 3087 3084 3081 3077 3074 3070 3067 3064 3060 3056 3052 3047 3042 3036 3031 3025 3018 3011 3004 2997 2990 2983 2975 2967 2958 2948 2937 2928
3085 3087 3088 3089 3090 3091 3092 3093 3095 3096 3096 3097 3098 3099 3100 3101 3102 3103 3104 3105 3106 3107 3108 3109 3110 3111 3112 3113 3113 3113 3114 3114 3114 3114 3114 3114 3114 3114 3115 3115 3114 3114 3113 3113 3111 3110 3108 3107 3105 3103 3100 3098 3097 3095 3094 3092 3089 3086 3083 3080 3077 3074 3071 3067 3063 3060 3056 3051 3047 3041 3035 3029 3023 3016 3010 3003 2996 2990 2983 2976 2969 2960 2951 2941 2931
3083 3084 3085 3086 3088 3089 3090 3091 3092 3093 3094 3094 3095 3097 3098 3098 3099 3100 3102 3103 3104 3105 3106 3107 3108 3110 3110 3111 3111 3112 3112 3112 3112 3112 3113 3113 3113 3113 3114 3114 3113 3113 3112 3111 3110 3109 3107 3106 3104 3101 3099 3098 3096 3095 3093 3091 3088 3085 3082 3080 3077 3073 3070 3067 3063 3059 3055 3051 3046 3041 3034 3028 3021 3015 3009 3002 2996 2990 2983 2977 2970 2961 2953 2944 2934
3080 3081 3082 3084 3085 3087 3088 3089 3089 3090 3091 3092 3093 3094 3095 3096 3097 3098 3099 3100 3101 3103 3104 3106 3107 3108 3109 3109 3110 3110 3110 3111 3111 3111 3111 3112 3112 3112 3113 3113 3112 3112 3111 3110 3109 3107 3106 3105 3103 3101 3099 3097 3095 3094 3092 3089 3087 3084 3081 3078 3075 3072 3069 3066 3062 3059 3054 3050 3045 3040 3034 3028 3021 3015 3009 3002 2997 2991 2985 2979 2971 2964 2955 2946 2937
3077 3078 3080 3081 3083 3084 3085 3086 3087 3088 3088 3089 3090 3092 3093 3093 3094 3095 3097 3098 3100 3101 3102 3103 3105 3106 3107 3107 3108 3108 3109 3109 3109 3110 3110 3111 3111 3111 3111 3111 3111 3111 3110 3109 3108 3106 3105 3104 3102 3100 3098 3096 3095 3093 3091 3088 3086 3083 3080 3077 3074 3071 3068 3065 3061 3057 3053 3049 3044 3039 3034 3028 3023 3017 3011 3005 2998 2992 2986 2979 2972 2964 2957 2950 2942
3074 3075 3077 3079 3081 3082 3082 3083 3084 3085 3086 3087 3088 3089 3090 3091 3092 3093 3095 3096 3098 3099 3101 3102 3103 3104 3105 3105 3106 3106 3107 3107 3108 3109 3109 3109 3110 3110 3110 3110 3110 3109 3109 3108 3106 3105 3104 3102 3100 3099 3097 3095 3094 3092 3090 3087 3085 3082 3079 3076 3073 3070 3066 3063 3059 3056 3052 3048 3043 3039 3034 3029 3024 3019 3013 3006 2999 2992 2985 2978 2971 2964 2957 2951 2944
3071 3073 3075 3076 3078 3079 3080 3080 3081 3082 3083 3084 3085 3086 3087 3088 3089 3091 3092 3094 3096 3098 3099 3100 3101 3102 3103 3103 3104 3105 3105 3106 3107 3107 3108 3108 3109 3109 3109 3109 3109 3108 3107 3106 3105 3104 3103 3101 3099 3097 3096 3094 3093 3091 3088 3086 3083 3081 3078 3075 3072 3069 3065 3062 3058 3054 3051 3047 3044 3039 3035 3030 3025 3020 3014 3008 3001 2993 2986 2979 2972 2965 2959 2952 2945
3068 3070 3072 3073 3075 3076 3077 3078 3079 3079 3080 3082 3083 3084 3085 3086 3087 3089 3091 3093 3094 3096 3097 3099 3099 3100 3101 3102 3102 3103 3104 3105 3105 3106 3107 3107 3108 3108 3108 3108 3107 3107 3106 3105 3104 3103 3101 3099 3098 3096 3095 3094 3092 3090 3087 3085 3082 3079 3077 3074 3071 3068 3065 3062 3059 3055 3052 3048 3044 3040 3035 3031 3025 3020 3014 3009 3002 2995 2988 2982 2975 2968 2962 2955 2947
3065 3067 3069 3070 3072 3073 3074 3075 3076 3077 3078 3079 3080 3081 3082 3084 3085 3087 3089 3090 3092 3093 3095 3096 3097 3098 3099 3100 3101 3101 3102 3103 3104 3105 3105 3106 3106 3107 3107 3106 3106 3105 3105 3104 3103 3101 3100 3098 3096 3095 3094 3093 3091 3089 3087 3084 3081 3078 3076 3073 3070 3067 3064 3061 3058 3055 3051 3047 3043 3039 3034 3030 3025 3020 3015 3010 3004 2998 2991 2984 2977 2971 2965 2958 2951
3062 3064 3066 3068 3070 3071 3071 3072 3073 3074 3075 3076 3077 3078 3079 3080 3082 3083 3085 3087 3088 3090 3092 3093 3094 3095 3096 3098 3099 3100 3101 3102 3102 3103 3104 3105 3105 3105 3105 3105 3104 3104 3103 3102 3101 3100 3098 3097 3095 3094 3093 3091 3090 3088 3086 3083 3080 3078 3075 3072 3068 3065 3062 3059 3056 3053 3049 3046 3042 3038 3034 3029 3025 3020 3015 3010 3005 3000 2995 2988 2981 2974 2967 2960 2955
3060 3061 3063 3065 3067 3068 3068 3069 3070 3071 3072 3073 3074 3075 3076 3078 3079 3080 3082 3083 3085 3087 3089 3090 3091 3093 3094 3096 3097 3098 3099 3100 3101 3102 3103 3103 3103 3103 3103 3103 3102 3102 3101 3100 3099 3098 3097 3095 3094 3092 3091 3089 3088 3086 3084 3081 3078 3076 3073 3070 3067 3064 3060 3057 3054 3051 3048 3044 3041 3037 3034 3029 3025 3020 3016 3011 3006 3001 2996 2991 2985 2978 2971 2964 2958
3057 3059 3061 3062 3063 3064 3065 3066 3067 3068 3069 3070 3071 3072 3073 3075 3076 3078 3080 3082 3083 3085 3086 3088 3089 3091 3092 3094 3095 3096 3097 3098 3099 3100 3101 3101 3101 3101 3101 3101 3100 3100 3099 3098 3097 3096 3095 3094 3093 3091 3089 3088 3086 3084 3082 3079 3077 3074 3071 3068 3065 3062 3059 3055 3052 3049 3046 3042 3039 3036 3033 3029 3026 3021 3017 3012 3007 3002 2997 2993 2987 2981 2975 2969 2963
3054 3056 3057 3059 3060 3061 3062 3063 3063 3065 3066 3067 3068 3069 3070 3072 3073 3075 3078 3081 3083 3084 3085 3086 3087 3089 3090 3092 3093 3095 3096 3096 3097 3098 3099 3099 3099 3099 3099 3099 3099 3098 3097 3097 3096 3095 3093 3092 3091 3089 3088 3086 3084 3082 3080 3077 3075 3072 3069 3066 3063 3061 3057 3054 3050 3047 3044 3041 3038 3035 3032 3029 3026 3022 3018 3014 3009 3003 2998 2994 2989 2984 2979 2972 2967
3052 3053 3055 3056 3057 3058 3059 3059 3061 3062 3062 3064 3065 3066 3068 3070 3072 3074 3076 3078 3080 3082 3083 3084 3086 3087 3089 3090 3091 3093 3094 3094 3095 3096 3096 3097 3097 3097 3097 3097 3097 3096 3095 3095 3094 3093 3092 3091 3089 3087 3086 3084 3082 3080 3078 3076 3073 3071 3068 3065 3062 3059 3056 3053 3050 3047 3043 3040 3037 3034 3031 3028 3025 3022 3018 3015 3011 3006 3001 2996 2990 2986 2981 2976 2970
3048 3050 3051 3053 3054 3054 3055 3056 3057 3059 3059 3060 3062 3063 3065 3067 3069 3071 3073 3075 3077 3079 3081 3082 3084 3085 3087 3088 3089 3090 3091 3092 3093 3094 3094 3094 3095 3095 3095 3095 3094 3094 3093 3093 3092 3091 3090 3089 3087 3085 3084 3082 3080 3078 3076 3074 3072 3069 3067 3064 3061 3058 3055 3052 3049 3046 3042 3039 3036 3033 3030 3027 3025 3022 3018 3015 3011 3007 3003 2998 2993 2988 2984 2979 2974
3045 3047 3048 3050 3050 3051 3052 3053 3055 3056 3057 3058 3059 3061 3063 3065 3067 3069 3071 3073 3074 3076 3078 3080 3081 3083 3084 3086 3087 3088 3089 3090 3091 3091 3092 3092 3092 3093 3093 3092 3092 3092 3091 3090 3090 3089 3088 3086 3085 3083 3082 3080 3078 3077 3075 3072 3070 3068 3065 3063 3060 3057 3054 3051 3048 3045 3042 3038 3035 3032 3029 3026 3024 3022 3019 3016 3013 3009 3005 3001 2996 2992 2987 2983 2979
3042 3044 3046 3046 3047 3048 3049 3051 3052 3053 3054 3055 3056 3058 3061 3063 3065 3067 3069 3070 3072 3074 3075 3077 3079 3081 3082 3083 3084 3085 3086 3087 3088 3089 3089 3090 3090 3090 3090 3090 3090 3089 3089 3088 3087 3086 3085 3084 3083 3081 3080 3078 3077 3075 3073 3071 3069 3066 3064 3061 3058 3056 3053 3050 3047 3044 3041 3037 3034 3031 3028 3026 3023 3021 3018 3016 3013 3010 3007 3003 3000 2996 2991 2987 2983
3040 3042 3043 3044 3044 3045 3047 3048 3049 3050 3050 3051 3053 3055 3058 3060 3062 3064 3066 3068 3069 3071 3073 3075 3077 3079 3080 3081 3082 3083 3084 3085 3086 3087 3087 3087 3087 3087 3087 3087 3087 3087 3086 3086 3085 3084 3083 3082 3080 3079 3077 3076 3075 3073 3071 3069 3067 3065 3063 3060 3057 3055 3052 3049 3046 3043 3040 3037 3034 3031 3028 3025 3023 3020 3018 3015 3013 3011 3008 3004 3001 2998 2994 2990 2986
3038 3039 3040 3041 3042 3043 3044 3044 3045 3046 3046 3047 3049 3052 3054 3057 3059 3061 3062 3064 3066 3068 3070 3073 3075 3077 3078 3078 3079 3080 3081 3082 3083 3084 3084 3084 3084 3085 3085 3085 3085 3084 3084 3083 3083 3082 3081 3080 3078 3077 3075 3074 3072 3071 3069 3067 3065 3063 3061 3059 3056 3054 3051 3048 3046 3043 3040 3037 3034 3031 3028 3026 3023 3020 3017 3015 3013 3011 3008 3005 3002 2999 2996 2992 2989
3036 3037 3038 3039 3040 3040 3040 3041 3042 3043 3043 3045 3047 3049 3051 3053 3056 3058 3059 3061 3063 3066 3068 3070 3072 3074 3075 3076 3076 3077 3078 3079 3080 3081 3081 3081 3082 3082 3082 3082 3082 3082 3081 3081 3080 3080 3079 3077 3076 3075 3073 3072 3070 3068 3067 3065 3064 3062 3060 3057 3055 3052 3050 3047 3045 3042 3039 3037 3034 3031 3029 3026 3023 3021 3018 3015 3013 3010 3008 3006 3003 3000 2997 2994 2992
3034 3035 3036 3036 3037 3037 3038 3039 3040 3040 3041 3043 3045 3047 3049 3051 3053 3055 3056 3059 3061 3063 3066 3068 3070 3071 3072 3073 3074 3074 3075 3076 3077 3077 3078 3079 3079 3079 3079 3079 3079 3079 3078 3078 3078 3077 3076 3075 3074 3072 3071 3069 3068 3066 3065 3063 3061 3060 3058 3056 3053 3051 3049 3046 3044 3041 3039 3036 3034 3031 3029 3026 3024 3021 3019 3016 3013 3011 3008 3006 3004 3002 2999 2997 2994
3032 3033 3033 3034 3034 3035 3036 3036 3037 3038 3039 3040 3042 3044 3046 3048 3050 3052 3054 3057 3059 3061 3063 3065 3067 3068 3069 3070 3071 3071 3072 3073 3074 3074 3075 3076 3076 3076 3076 3076 3076 3076 3076 3075 3075 3074 3073 3072 3071 3070 3068 3067 3066 3064 3063 3061 3059 3058 3056 3054 3052 3050 3048 3045 3043 3041 3038 3036 3034 3032 3029 3027 3024 3022 3019 3016 3014 3011 3009 3007 3004 3002 3000 2998 2996
3029 3030 3030 3031 3032 3032 3033 3033 3034 3035 3035 3036 3037 3039 3042 3044 3047 3049 3052 3054 3056 3058 3061 3062 3064 3065 3066 3066 3067 3068 3069 3070 3071 3071 3072 3073 3073 3073 3073 3073 3073 3073 3073 3072 3072 3071 3070 3070 3068 3067 3066 3064 3063 3062 3060 3059 3057 3055 3054 3052 3050 3048 3046 3044 3042 3040 3038 3036 3034 3032 3029 3027 3025 3022 3020 3017 3015 3012 3009 3007 3005 3002 3001 2999 2997
3026 3027 3027 3028 3029 3029 3030 3030 3031 3032 3032 3033 3034 3036 3038 3041 3043 3046 3049 3051 3054 3056 3058 3060 3061 3062 3062 3063 3064 3065 3066 3067 3067 3068 3069 3069 3070 3070 3070 3070 3070 3070 3070 3069 3069 3068 3067 3067 3066 3064 3063 3062 3061 3059 3058 3056 3055 3053 3051 3050 3048 3046 3044 3043 3041 3039 3037 3035 3033 3031 3029 3027 3025 3023 3020 3018 3015 3012 3010 3007 3005 3002 3000 2999 2997
3023 3024 3024 3025 3026 3027 3027 3028 3028 3029 3029 3030 3031 3033 3035 3038 3040 3043 3046 3049 3052 3054 3055 3057 3057 3058 3059 3060 3061 3062 3063 3063 3064 3065 3065 3066 3067 3067 3067 3067 3067 3067 3067 3066 3066 3065 3064 3064 3063 3062 3061 3059 3058 3057 3055 3054 3053 3051 3049 3048 3046 3045 3043 3041 3039 3038 3036 3034 3032 3031 3029 3027 3025 3023 3020 3018 3015 3013 3010 3008 3005 3003 3000 2998 2997
3020 3020 3021 3022 3023 3024 3025 3025 3026 3026 3026 3027 3028 3030 3032 3035 3038 3041 3044 3047 3049 3051 3052 3053 3054 3055 3056 3057 3057 3058 3059 3060 3061 3061 3062 3063 3063 3064 3064 3064 3064 3064 3064 3063 3063 3062 3061 3060 3059 3059 3058 3057 3055 3054 3053 3052 3050 3049 3048 3046 3044 3043 3041 3039 3038 3036 3034 3033 3031 3030 3029 3027 3025 3022 3020 3018 3015 3013 3010 3008 3005 3003 3001 2998 2997
3016 3017 3018 3019 3020 3021 3022 3022 3023 3023 3023 3024 3025 3027 3029 3032 3035 3039 3042 3044 3046 3048 3049 3050 3051 3052 3053 3053 3054 3055 3056 3057 3057 3058 3059 3060 3060 3061 3061 3061 3061 3061 3060 3060 3059 3059 3058 3057 3056 3055 3054 3054 3052 3051 3050 3049 3048 3046 3045 3044 3042 3040 3039 3037 3036 3034 3033 3031 3030 3029 3028 3026 3024 3022 3020 3018 3015 3013 3011 3009 3006 3004 3001 2999 2997
3013 3014 3015 3016 3017 3018 3018 3019 3019 3020 3020 3020 3021 3023 3026 3029 3032 3036 3039 3041 3043 3044 3046 3047 3048 3049 3050 3050 3051 3052 3052 3053 3054 3055 3056 3056 3057 3057 3057 3057 3057 3057 3057 3057 3056 3055 3055 3054 3053 3052 3051 3050 3049 3048 3047 3046 3045 3044 3042 3041 3039 3038 3036 3035 3034 3032 3031 3029 3028 3027 3026 3025 3023 3021 3019 3017 3015 3013 3011 3009 3007 3004 3002 2999 2997
3010 3011 3012 3013 3014 3015 3015 3016 3016 3016 3017 3017 3018 3020 3022 3025 3029 3032 3035 3037 3039 3041 3042 3043 3044 3045 3046 3047 3048 3048 3049 3050 3051 3051 3052 3053 3053 3054 3054 3054 3054 3054 3053 3053 3053 3052 3051 3050 3050 3049 3048 3047 3046 3045 3044 3043 3042 3041 3040 3038 3037 3035 3034 3032 3031 3030 3029 3027 3026 3025 3024 3023 3022 3020 3018 3017 3015 3013 3011 3009 3007 3005 3002 3000 2997
3007 3008 3009 3010 3011 3012 3012 3013 3013 3013 3014 3014 3015 3017 3019 3022 3025 3028 3031 3033 3036 3037 3039 3040 3041 3042 3043 3044 3045 3045 3046 3046 3047 3048 3049 3049 3050 3050 3050 3050 3050 3050 3050 3049 3049 3048 3048 3047 3046 3045 3044 3043 3042 3042 3041 3040 3039 3038 3037 3036 3034 3033 3031 3030 3029 3028 3027 3025 3024 3023 3021 3020 3019 3018 3017 3015 3014 3012 3010 3008 3006 3005 3003 3000 2998
3005 3006 3006 3007 3008 3008 3009 3010 3010 3010 3011 3011 3012 3014 3016 3019 3022 3025 3028 3031 3033 3035 3036 3037 3038 3039 3040 3041 3041 3042 3042 3043 3044 3044 3045 3045 3046 3046 3046 3046 3046 3046 3045 3045 3045 3045 3044 3043 3043 3042 3041 3040 3039 3038 3037 3036 3035 3034 3033 3032 3031 3030 3029 3028 3027 3025 3024 3022 3021 3020 3019 3018 3017 3016 3014 3013 3012 3011 3009 3008 3006 3004 3003 3001 2998